GW6099 Weather Reports


time (UTC)temp
C
wind
direction
speed
KPH
gust
KPH
rain 1hr
cm
rain 24hr
cm
rain mn
cm
humidity
%
barometer
mb
20260504081522 13 101 0.0 0.0 0.00 0.00 0.00 74 1010.3
20260504050007 16 161 0.0 4.8 0.00 0.00 0.00 61 1011.7
20260504044522 16 149 1.6 9.7 0.00 0.00 0.00 62 1011.8
20260504043017 15 150 0.0 0.0 0.00 0.00 0.00 63 1011.9
20260504041519 15 119 0.0 0.0 0.00 0.00 0.00 63 1012.1
20260504040024 15 123 0.0 0.0 0.00 0.00 0.00 64 1012.1
20260504034508 15 100 0.0 0.0 0.00 0.00 0.00 66 1012.1
20260504033016 15 104 0.0 0.0 0.00 0.00 0.00 67 1012.3
20260504031518 15 104 0.0 0.0 0.00 0.00 0.00 66 1012.4
20260504030033 15 104 0.0 0.0 0.00 0.00 0.00 66 1012.7
20260504024507 15 104 0.0 0.0 0.00 0.00 0.00 66 1012.6
20260504023012 16 104 0.0 0.0 0.00 0.00 0.00 63 1012.4
20260504021516 16 104 0.0 0.0 0.00 0.00 0.00 62 1012.4
20260504020022 17 104 0.0 0.0 0.00 0.00 0.00 57 1012.3
20260504014522 17 104 0.0 0.0 0.00 0.00 0.00 54 1012.1
20260504013010 18 104 0.0 0.0 0.00 0.00 0.00 51 1012.0
20260504011528 20 127 0.0 0.0 0.00 0.00 0.00 46 1012.0
20260504010022 20 195 0.0 0.0 0.00 0.00 0.00 44 1012.0
20260504004524 21 219 0.0 1.6 0.00 0.00 0.00 42 1011.9
20260504003026 22 207 0.0 1.6 0.00 0.00 0.00 40 1012.0
20260504001512 23 210 0.0 1.6 0.00 0.00 0.00 39 1012.0
20260504000013 23 156 0.0 11.3 0.00 0.00 0.00 38 1011.9
20260503234530 25 186 0.0 6.4 0.00 0.00 0.00 36 1012.0
20260503233021 25 233 0.0 11.3 0.00 0.00 0.00 34 1012.1
20260503231529 25 208 4.8 19.3 0.00 0.00 0.00 33 1012.0
20260503230003 25 274 4.8 16.1 0.00 0.00 0.00 33 1012.0
20260503224502 25 242 1.6 25.7 0.00 0.00 0.00 35 1012.1
20260503223003 25 139 6.4 11.3 0.00 0.00 0.00 36 1012.3
20260503221504 25 160 8.0 20.9 0.00 0.00 0.00 34 1012.3
20260503220010 25 224 1.6 20.9 0.00 0.00 0.00 34 1012.5
20260503214502 25 222 3.2 19.3 0.00 0.00 0.00 36 1012.7
20260503213008 25 251 4.8 17.7 0.00 0.00 0.00 35 1012.9
20260503211504 25 263 6.4 22.5 0.00 0.00 0.00 35 1013.1
20260503210006 25 283 8.0 17.7 0.00 0.00 0.00 36 1013.4
20260503204506 25 231 4.8 25.7 0.00 0.00 0.00 38 1013.7
20260503203008 25 210 4.8 24.1 0.00 0.00 0.00 40 1013.9
20260503201504 25 257 4.8 17.7 0.00 0.00 0.00 42 1014.1
20260503200008 24 241 4.8 12.9 0.00 0.00 0.00 42 1014.3
20260503194507 24 235 3.2 14.5 0.00 0.00 0.00 46 1014.7
20260503193008 23 167 6.4 12.9 0.00 0.00 0.00 45 1015.1
20260503191513 23 124 1.6 16.1 0.00 0.00 0.00 44 1015.3
20260503190008 23 207 9.7 17.7 0.00 0.00 0.00 44 1015.6
20260503184509 22 219 6.4 17.7 0.00 0.00 0.00 45 1015.7
20260503183006 22 220 1.6 14.5 0.00 0.00 0.00 46 1016.0
20260503181507 22 219 3.2 14.5 0.00 0.00 0.00 46 1016.3
20260503180016 21 221 3.2 24.1 0.00 0.00 0.00 45 1016.8
20260503174509 21 203 0.0 17.7 0.00 0.00 0.00 46 1017.2
20260503173010 21 188 3.2 14.5 0.00 0.00 0.00 46 1017.5
20260503171513 20 150 3.2 11.3 0.00 0.00 0.00 46 1017.9